Desert Center, CA

5:01 PM PST on January 17, 2017 (GMT -0800)
Blythe

Weather History for KBLH - February, 2014

Change the Weather History Date:

Thursday, February 27, 2014

  Actual Average Record
Temperature  
Mean Temperature 68 °F -  
Max Temperature 81 °F 69 °F 90 °F (1986)
Min Temperature 54 °F 45 °F 29 °F (1996)
Cooling Degree Days 2    
Growing Degree Days 18 (Base 50)    
Moisture  
Dew Point 43 °F    
Average Humidity 43    
Maximum Humidity 67    
Minimum Humidity 19    
Precipitation  
Precipitation 0.00 in - - ()
Sea Level Pressure  
Sea Level Pressure 29.84 in    
Wind  
Wind Speed 7 mph (SSW)    
Max Wind Speed 22 mph    
Max Gust Speed 30 mph    
Visibility 10 miles    
Events      
Averages and records for this station are not official NWS values.
T = Trace of Precipitation, MM = Missing Value Source: NWS Daily Summary

Daily Weather History Graph

Daily Weather History Graph

Search for Another Location

Airport or City:

Trip Planner

Search our weather history database for the weather conditions in past years. The results will help you decide how hot, cold, wet, or windy it might be!

Date:

Astronomy

Feb. 27, 2014 Rise Set
Actual Time 6:09 AM PST 5:33 PM PST
Civil Twilight 5:44 AM PST 5:59 PM PST
Nautical Twilight 5:15 AM PST 6:27 PM PST
Astronomical Twilight 4:46 AM PST 6:56 PM PST
Moon 4:41 AM PST (2/27) 4:06 PM PST (2/27)
Length of Visible Light 12h 14m
Length of Day
11h 24m
Waning Crescent, 3% of the Moon is Illuminated
Feb 27
Waning Crescent
Mar 1
New
Mar 8
First Quarter
Mar 16
Full
Mar 23
Last Quarter

Hourly Weather History & Observations

Time (PST) Temp. Dew Point Humidity Pressure Visibility Wind Dir Wind Speed Gust Speed Precip Events Conditions
12:52 AM 60.1 °F 45.0 °F 57% 29.89 in 10.0 mi Calm Calm - N/A   Clear
1:52 AM 55.9 °F 43.0 °F 62% 29.89 in 10.0 mi NNW 3.5 mph - N/A   Clear
2:52 AM 54.0 °F 43.0 °F 66% 29.87 in 10.0 mi Calm Calm - N/A   Clear
3:52 AM 54.0 °F 43.0 °F 66% 29.88 in 10.0 mi Calm Calm - N/A   Clear
4:52 AM 55.9 °F 45.0 °F 67% 29.88 in 10.0 mi SW 4.6 mph - N/A   Clear
5:52 AM 57.9 °F 46.0 °F 65% 29.88 in 10.0 mi South 6.9 mph - N/A   Clear
6:52 AM 57.9 °F 46.9 °F 67% 29.89 in 10.0 mi SSW 4.6 mph - N/A   Clear
7:52 AM 63.0 °F 46.9 °F 56% 29.91 in 10.0 mi South 5.8 mph - N/A   Clear
8:52 AM 66.0 °F 48.0 °F 52% 29.92 in 10.0 mi SSE 5.8 mph - N/A   Clear
9:52 AM 73.0 °F 48.0 °F 41% 29.91 in 10.0 mi SW 16.1 mph - N/A   Clear
10:52 AM 77.0 °F 48.0 °F 36% 29.89 in 10.0 mi SSW 16.1 mph - N/A   Clear
11:52 AM 79.0 °F 45.0 °F 30% 29.86 in 10.0 mi WSW 12.7 mph 26.5 mph N/A   Clear
12:52 PM 81.0 °F 44.1 °F 27% 29.81 in 10.0 mi SW 21.9 mph 27.6 mph N/A   Clear
1:52 PM 81.0 °F 44.1 °F 27% 29.79 in 10.0 mi SSW 17.3 mph 29.9 mph N/A   Clear
2:52 PM 81.0 °F 42.1 °F 25% 29.78 in 10.0 mi SW 17.3 mph 24.2 mph N/A   Clear
3:52 PM 81.0 °F 35.1 °F 19% 29.77 in 10.0 mi SW 15.0 mph - N/A   Clear
4:52 PM 79.0 °F 34.0 °F 20% 29.75 in 10.0 mi WSW 17.3 mph - N/A   Clear
5:52 PM 75.9 °F 37.0 °F 24% 29.75 in 10.0 mi SW 11.5 mph - N/A   Clear
6:52 PM 71.1 °F 44.1 °F 38% 29.77 in 10.0 mi South 10.4 mph - N/A   Clear
7:52 PM 69.1 °F 43.0 °F 39% 29.78 in 10.0 mi South 10.4 mph - N/A   Clear
8:52 PM 68.0 °F 43.0 °F 40% 29.79 in 10.0 mi South 9.2 mph - N/A   Clear
9:52 PM 66.9 °F 39.0 °F 36% 29.81 in 10.0 mi South 11.5 mph - N/A   Clear
10:52 PM 66.9 °F 39.0 °F 36% 29.80 in 10.0 mi South 12.7 mph - N/A   Clear
11:52 PM 66.0 °F 41.0 °F 40% 29.80 in 10.0 mi SSW 13.8 mph - N/A   Clear
11:59 PM 66.9 °F 39.9 °F 37% 29.81 in 10.0 mi SW 10.4 mph - N/A   Clear